[TLELIST] Archives

 

[TLELIST] Current TLEs

November 24th 2024 PDT

HST 1 20580U 90037B 24328.48221780 .00011556 00000-0 49373-3 0 9992 2 20580 28.4703 355.3323 0001875 340.7552 19.2970 15.21259814701545 ISS (ZARYA) 1 25544U 98067A 24329.05341111 .00026433 00000-0 47041-3 0 9993 2 25544 51.6412 243.3639 0007500 262.4319 174.7808 15.49925942483347 CXO 1 25867U 99040B 24331.81436005 .00000537 00000-0 00000+0 0 9994 2 25867 44.8865 141.0157 8710623 304.5637 0.0224 0.37812761 26336 ...Continue Reading

[TLELIST] Current TLEs

November 24th 2024 PDT

HST 1 20580U 90037B 24328.48221780 .00011556 00000-0 49373-3 0 9992 2 20580 28.4703 355.3323 0001875 340.7552 19.2970 15.21259814701545 ISS (ZARYA) 1 25544U 98067A 24329.05341111 .00026433 00000-0 47041-3 0 9993 2 25544 51.6412 243.3639 0007500 262.4319 174.7808 15.49925942483347 CXO 1 25867U 99040B 24331.81436005 .00000537 00000-0 00000+0 0 9994 2 25867 44.8865 141.0157 8710623 304.5637 0.0224 0.37812761 26336 ...Continue Reading

[TLELIST] Current TLEs

November 23rd 2024 PDT

HST 1 20580U 90037B 24327.49815618 .00010909 00000-0 46592-3 0 9992 2 20580 28.4703 1.9607 0001819 329.4371 30.6117 15.21237446701137 ISS (ZARYA) 1 25544U 98067A 24328.29153615 .00029143 00000-0 51837-3 0 9997 2 25544 51.6408 247.1413 0007321 258.8281 244.5643 15.49886778483225 CXO 1 25867U 99040B 24329.16916176 .00000541 00000-0 00000+0 0 9996 2 25867 44.8372 141.1682 8716335 304.4807 359.9228 0.37809925 26324 ...Continue Reading

[TLELIST] Current TLEs

November 22nd 2024 PDT

HST 1 20580U 90037B 24326.51408065 .00010023 00000-0 42770-3 0 9999 2 20580 28.4703 8.5888 0001788 317.4384 42.6071 15.21216335701245 ISS (ZARYA) 1 25544U 98067A 24327.32451834 .00067688 00000-0 11888-2 0 9991 2 25544 51.6385 251.9356 0007283 257.2930 247.0781 15.49857513483078 CXO 1 25867U 99040B 24329.16916176 .00000541 00000-0 00000+0 0 9996 2 25867 44.8372 141.1682 8716335 304.4807 359.9228 0.37809925 26324 ...Continue Reading

[TLELIST] Current TLEs

November 21st 2024 PDT

HST 1 20580U 90037B 24325.52999159 .00010205 00000-0 43583-3 0 9993 2 20580 28.4702 15.2167 0001679 304.5716 55.4719 15.21197547700832 ISS (ZARYA) 1 25544U 98067A 24326.35726794 .00017588 00000-0 31775-3 0 9995 2 25544 51.6415 256.7221 0007502 251.4442 252.7664 15.49771356482920 CXO 1 25867U 99040B 24326.52387355 .00000571 00000-0 00000-0 0 9998 2 25867 44.7729 141.3483 8721311 304.3692 359.8417 0.37806941 15154 ...Continue Reading

[TLELIST] Current TLEs

November 21st 2024 PDT

HST 1 20580U 90037B 24325.52999159 .00010205 00000-0 43583-3 0 9993 2 20580 28.4702 15.2167 0001679 304.5716 55.4719 15.21197547700832 ISS (ZARYA) 1 25544U 98067A 24326.35726794 .00017588 00000-0 31775-3 0 9995 2 25544 51.6415 256.7221 0007502 251.4442 252.7664 15.49771356482920 CXO 1 25867U 99040B 24326.52387355 .00000571 00000-0 00000-0 0 9998 2 25867 44.7729 141.3483 8721311 304.3692 359.8417 0.37806941 15154 ...Continue Reading

[TLELIST] Current TLEs

November 21st 2024 PDT

HST 1 20580U 90037B 24325.52999159 .00010205 00000-0 43583-3 0 9993 2 20580 28.4702 15.2167 0001679 304.5716 55.4719 15.21197547700832 ISS (ZARYA) 1 25544U 98067A 24326.35726794 .00017588 00000-0 31775-3 0 9995 2 25544 51.6415 256.7221 0007502 251.4442 252.7664 15.49771356482920 CXO 1 25867U 99040B 24326.52387355 .00000571 00000-0 00000-0 0 9998 2 25867 44.7729 141.3483 8721311 304.3692 359.8417 0.37806941 15154 ...Continue Reading

[TLELIST] Current TLEs

November 20th 2024 PDT

HST 1 20580U 90037B 24324.48028315 .00008859 00000-0 37749-3 0 9993 2 20580 28.4701 22.2868 0001652 290.1584 69.8832 15.21176223700676 ISS (ZARYA) 1 25544U 98067A 24325.05772537 -.00616992 00000-0 -11832-1 0 9993 2 25544 51.6408 263.1527 0007793 241.4078 207.7442 15.49574119482729 CXO 1 25867U 99040B 24326.52387355 .00000571 00000-0 00000-0 0 9998 2 25867 44.7729 141.3483 8721311 304.3692 359.8417 0.37806941 15154 ...Continue Reading

[TLELIST] Current TLEs

November 19th 2024 PDT

HST 1 20580U 90037B 24324.21785374 .00008868 00000-0 37795-3 0 9990 2 20580 28.4702 24.0539 0001663 286.1909 73.8502 15.21171651700893 ISS (ZARYA) 1 25544U 98067A 24324.20355804 .00019534 00000-0 34966-3 0 9995 2 25544 51.6393 267.3909 0007362 234.9623 125.0676 15.49957044482595 CXO 1 25867U 99040B 24326.52387355 .00000571 00000-0 00000-0 0 9998 2 25867 44.7729 141.3483 8721311 304.3692 359.8417 0.37806941 15154 ...Continue Reading

[TLELIST] Current TLEs

November 18th 2024 PDT

HST 1 20580U 90037B 24322.90569541 .00008116 00000-0 34538-3 0 9998 2 20580 28.4700 32.8909 0001696 268.8069 91.2330 15.21149232700690 ISS (ZARYA) 1 25544U 98067A 24323.23641665 .00015918 00000-0 28694-3 0 9993 2 25544 51.6394 272.1811 0007335 231.4765 128.5566 15.49919217482441 CXO 1 25867U 99040B 24323.87927738 .00000571 00000-0 00000-0 0 9998 2 25867 44.7074 141.5385 8725615 304.2436 359.8848 0.37806582 15144 ...Continue Reading
  • This mailing list is a public mailing list - anyone may join or leave, at any time.
  • This mailing list is announce-only.

International Space Station (ISS) / Hubble Space Telescope (HST) / Chandra X-Ray Observatory Orbital Data via EMAIL

Privacy Policy:

Private list